Other Public Products
Issued by NWS Grand Forks, ND

Home | Current Version | Previous Version | Text Only | Print | Product List | Glossary On
Versions: 1 2 3 4 5 6 7 8 9 10 11 12 13 14 15 16 17 18 19 20 21 22 23 24 25 26 27 28 29 30 31 32 33 34 35 36 37 38 39 40 41 42 43 44 45 46 47 48 49 50
000
FPUS83 KFGF 201531
OPUFGF
PRAIRIE TO PINES WEATHER ROUNDUP
NATIONAL WEATHER SERVICE EASTERN NORTH DAKOTA/GRAND FORKS ND
1000 AM CDT WED SEP 20 2017

 **SATELLITE DATA USED TO AUGMENT SKY COVER AT AUTOMATED STATIONS**
 *****  WEATHER ACROSS EASTERN NORTH DAKOTA  *****

CITY           SKY/WX    TMP DP  RH WIND       PRES   REMARKS
GRAND FORKS    FAIR      58  50  75 SW13      29.66R
GRAND FORKS AF FAIR      59  47  63 W10G22    29.66R
GRAND CITY NWS NOT AVBL
BUXTON           N/A     59  48  67 W12         N/A
DEVILS LAKE    FAIR      54  46  74 SW15      29.66R
FARGO          FAIR      58  48  69 W12       29.72R
WAHPETON ARPT  FAIR      57  45  62 W12       29.77R
$$

 *****  WEATHER ACROSS CENTRAL AND WESTERN NORTH DAKOTA  *****

CITY           SKY/WX    TMP DP  RH WIND       PRES   REMARKS
JAMESTOWN      FAIR      55  44  66 W9        29.72R
BISMARCK       FAIR      54  44  69 SW10      29.73R
MINOT          FAIR      55  44  66 S10       29.61R
MINOT AFB      FAIR      55  44  66 SW13      29.59R
GARRISON         N/A     53  44  71 W13       29.66R
WILLISTON      FAIR      50  41  71 SW15      29.61R
DICKINSON      FAIR      52  41  66 SW18      29.68R
HETTINGER      FAIR      51  42  71 SW12      29.76S
$$

 *****  OTHER OBSERVATIONS NORTHEAST NORTH DAKOTA  *****

CITY           SKY/WX    TMP DP  RH WIND       PRES   REMARKS
WALHALLA       FAIR     N/A N/A N/A SW14      29.62R
LANGDON        FAIR      57  50  77 SW20      29.63R
CAVALIER       FAIR      59  46  63 SW14G20   29.62R
GRAFTON        FAIR      61  50  67 SW17      29.66S
CANDO          FAIR      54  50  87 SW12      29.66R
FORT TOTTEN      N/A     53  45  75 SW7       29.95S
ROLLA          FAIR      50  46  87 SW15G22   29.62R
RUGBY          FAIR      54  46  76 SW10      29.62S
 ***** THE ABOVE OBSERVATIONS ARE NON NWS ARE NOT QUALITY
        CONTROLLED AND MAY MIS-REPORT RAIN FOR SNOW...
$$

 *****  OTHER OBSERVATIONS SOUTHEAST NORTH DAKOTA *****

CITY           SKY/WX    TMP DP  RH WIND       PRES   REMARKS
COOPERSTOWN    FAIR      57  46  67 SW12      29.71R
VALLEY CITY    FAIR      55  48  76 W10       29.74R
OAKES          NOT AVBL
GWINNER        SUNNY     57  46  67 W12       29.76R
SHEYENNE NWR     N/A     57  49  74 W9        29.95S
BUFFALO          N/A     57  41  54 NW10        N/A
WYNDMERE       NOT AVBL
 ***** THE ABOVE OBSERVATIONS ARE NON NWS ARE NOT QUALITY
       CONTROLLED AND MAY MIS-REPORT RAIN FOR SNOW...
$$

  *****  WEATHER ACROSS NORTHERN MINNESOTA  *****

CITY           SKY/WX    TMP DP  RH WIND       PRES   REMARKS
FLAG ISLAND    FAIR      55  52  88 SW8       29.59R
WARROAD        FAIR      57  54  88 SW9G17    29.62R
ROSEAU         FAIR      57  52  82 W12G23    29.63R
HALLOCK        CLOUDY    59  52  77 SW14      29.63R
THF RVR FALLS  FAIR      57  50  77 W14       29.68R
HALSTAD          N/A     59  48  67 W10         N/A
FOSSTON        FAIR      55  52  88 W12       29.71R
BAUDETTE       FAIR      59  56  89 W10       29.61S
WASKISH        PTSUNNY   57  57 100 W13G21    29.66R
CROOKSTON      FAIR      57  50  77 W14       29.70R
$$
  *****  WEATHER ACROSS CENTRAL AND WEST MINNESOTA  *****

CITY           SKY/WX    TMP DP  RH WIND       PRES   REMARKS
BEMIDJI        CLOUDY    56  51  81 W15       29.69R
PARK RAPIDS    FAIR      59  51  75 W15       29.71R
WADENA         FAIR      57  50  77 W9G17     29.73R
DETROIT LAKES  FAIR      57  48  72 W12G17    29.75R
MOORHEAD       FAIR      57  46  67 W10       29.74R
FERGUS FALLS   FAIR      57  48  72 W13G18    29.77R
ELBOW LAKE     FAIR      58  49  73 NW13G18   29.77R
MORRIS MN      FAIR      61  48  63 W15       29.77R
STAPLES        FAIR      61  48  63 W14       29.73R
WHEATON        FAIR      61  45  55 W10G18    29.79R
$$
  *****  WEATHER ELSEWHERE ACROSS MINNESOTA  *****

CITY           SKY/WX    TMP DP  RH WIND       PRES   REMARKS
DULUTH         CLOUDY    63  63 100 S12       29.65F FOG
INTRNTL FALLS  CLOUDY    61  58  90 W9        29.62R
ELY            CLOUDY    63  61  94 S12G18    29.63R
CLOQUET        CLOUDY    64  63  94 S3        29.65S FOG
BRAINERD       PTSUNNY   62  57  83 W9        29.70R
HIBBING        LGT RAIN  61  61 100 W8        29.66R FOG
ALEXANDRIA     FAIR      59  51  75 NW12G20   29.76R
SAINT CLOUD    FAIR      64  59  83 NW10      29.73R
MINNEAPOLIS    FAIR      71  62  73 W10       29.72R
$$

  *****  WEATHER ACROSS SOUTH DAKOTA  *****

CITY           SKY/WX    TMP DP  RH WIND       PRES   REMARKS
SIOUX FALLS    FAIR      61  52  72 NW14      29.83R
BROOKINGS      FAIR      57  49  74 NW14      29.82
WATERTOWN      FAIR      57  46  66 W12       29.79R
HURON          FAIR      60  46  59 W10       29.83R
SISSETON         N/A     60  47  61 W18G25    29.76R
ABERDEEN       FAIR      56  45  66 W8        29.79S
MITCHELL       FAIR      60  51  72 W12       29.84S
PIERRE         FAIR      56  42  59 SW9       29.82R
MOBRIDGE       FAIR      53  45  74 S8        29.77R
RAPID CITY     SUNNY     50  39  66 S7        29.83R
$$

  *****  SOME WEATHER IN NEARBY STATES *****

CITY           SKY/WX    TMP DP  RH WIND       PRES   REMARKS
GLASGOW MT     FAIR      49  37  63 SW9       29.56F
GREAT FALLS MT FAIR      48  26  42 SW20      29.56S
CHEYENNE WY    FAIR      50  31  48 SW13      30.00S
SCOTTSBLUFF NE FAIR      58  30  34 NW17      29.92S
OMAHA NE       FAIR      70  54  56 N18       29.79R
DES MOINES IA  FAIR      81  70  69 S12       29.74S
DAVENPORT IA   FAIR      80  68  66 S15G21    29.84F
CHICAGO IL     FAIR      78  66  66 S10       29.90F
EAU CLAIRE WI  CLOUDY    71  65  81 S13       29.72R
LA CROSSE WI   FAIR      77  66  68 S20G25    29.73F
$$

  *****  SOME NATIONAL WEATHER *****

CITY           SKY/WX    TMP DP  RH WIND       PRES   REMARKS
LA GUARDIA NY  PTSUNNY   75  65  70 N16G26    29.87S
RALEIGH NC     FAIR      81  69  67 SW10      30.03F
ATLANTA GA     FAIR      83  66  56 N8        30.08S
NEW ORLEANS LA PTSUNNY   84  76  76 SW5       30.03R HX  93
OKLAHOMA CITY  FAIR      81  71  71 S20G25    29.82R
ALBUQUERQUE NM FAIR      67  37  33 S5        30.10R
SALT LAKE CITY FAIR      54  39  57 SE15      29.92F
LOS ANGELES CA FAIR      67  61  81 E3        29.89R
BOISE ID       CLOUDY    54  33  45 SE16      29.73F
SEATTLE WA     CLOUDY    51  50  96 W6        29.63S
$$

*** WEATHER ACROSS MANITOBA...SASKATCHEWAN AND ONTARIO ***
                ***ONTARIO***

CITY           SKY/WX    TMP DP  RH WIND       PRES   REMARKS
GERALDTON      CLOUDY    57  55  94 SE14G21   29.86F
THUNDER BAY    CLOUDY    59  59 100 E9        29.73F
SIOUX LOOKOUT  LGT RAIN  61  59  94 S10G18    29.57R
TORONTO        PTSUNNY   73  66  78 E3        30.05F
BIG TROUT LK   LGT RAIN  55  48  76 SE10G26   29.66F
PICKLE LAKE    CLOUDY    57  52  82 SE21G28   29.61F
DRYDEN         LGT RAIN  61  61 100 S14G21    29.55R FOG
KENORA         PTSUNNY   54  52  94 W9        29.57R
$$
                *** MANITOBA***

CITY           SKY/WX    TMP DP  RH WIND       PRES   REMARKS
BRANDON        PTSUNNY   54  45  71 W18       29.53R
DAUPHIN        PTSUNNY   50  45  81 W20G25    29.42R
ISLAND LAKE    RAIN      55  55 100 E28G37    29.35F FOG
PILOT MOUND      N/A     54  45  71 SW17G23     N/A
THE PAS        LGT RAIN  50  48  93 SW9       29.14F FOG
THOMPSON       SHOWER    46  45  93 NE17G29   29.40F
WINNIPEG       MOSUNNY   57  48  72 SW16G25   29.54R
LYNN LAKE      RAIN      45  43  93 E22G40    29.43F FOG
CHURCHILL      CLOUDY    41  37  87 E20       29.97F
GILLAM         CLOUDY    46  41  81 E16G31    29.58F
$$
                ***SASKATCHEWAN***

CITY           SKY/WX    TMP DP  RH WIND       PRES   REMARKS
ESTEVAN        PTSUNNY   48  41  76 SW17G23   29.55R
KINDERSLEY     SUNNY     37  32  81 SE5       29.38S
LLOYDMINSTER   MOSUNNY   37  36  93 SW5       29.34F
PRINCE ALBERT  PTSUNNY   43  37  81 W10       29.34R
REGINA         MOSUNNY   45  36  70 SW10      29.46F
YORKTON        SUNNY     48  39  71 SW13      29.41R



USA.gov is the U.S. government's official web portal to all federal, state and local government web resources and services.